Location: Blackwall
(51.5097°N, 0.0016°W)
Time: 00:39:46
(UTC+00:00)

Terra - Pass Details

Date: 15 May 2026
Orbit: 689 x 690 km, 97.9° (Epoch: 9 June)

Event Time Altitude Azimuth Distance (km) Brightness Sun altitude
Rises 21:25:28 0° 206° (SSW) 3,051 4.8 -12.1°
Reaches altitude 10° 21:28:16 10° 224° (SW) 2,141 4.2 -12.4°
Maximum altitude 21:31:39 20° 270° (W) 1,601 4.1 -12.7°
Drops below altitude 10° 21:35:04 10° 317° (NW) 2,154 5.8 -13.0°
Sets 21:37:55 0° 335° (NNW) 3,077 7.0 -13.2°
